Theta_e
278 277 278 277 277 277 278 278 278 278 279 279 279 280 280 280 280 280 281 280 279 279 280 281 281 281 281 281 281 280 279 278 277 276 275 273 272 272 271 270 270 269 269 268 267 267 266 265 264 264 264 264 264 263 263 263 263 262 262 262 262 263 263 263 264 264 264 264 264 264 264 264 265 265 265 265 266 266 267 267 268 268 269 269 270 271 271
279 278 277 276 276 277 277 277 278 278 278 278 278 278 279 279 279 279 279 279 279 279 279 280 281 281 281 281 282 281 279 278 276 275 274 273 272 271 271 270 269 269 268 268 267 266 265 264 264 263 263 263 263 263 262 262 262 262 262 262 262 262 262 263 263 263 263 263 263 263 263 264 264 264 264 264 264 265 265 266 267 267 268 269 269 269 270
278 277 276 276 276 276 276 276 276 277 277 277 277 277 277 278 278 278 278 278 278 279 279 279 279 280 280 281 282 281 279 277 276 275 274 274 272 271 270 269 269 268 268 267 266 265 264 264 263 263 263 263 262 262 262 262 261 261 261 261 261 262 262 262 262 262 263 263 263 263 263 263 263 263 263 263 264 264 264 265 266 266 267 268 268 268 269
277 276 275 276 276 275 275 275 275 275 276 276 277 277 277 277 277 277 277 277 278 279 279 278 278 279 279 279 280 279 279 278 276 275 274 274 272 271 270 269 268 268 267 266 265 264 264 263 262 262 262 262 261 261 261 261 261 261 261 261 261 261 261 262 262 262 262 262 262 262 262 262 262 262 262 263 263 264 264 264 265 265 266 266 267 267 268
277 276 274 275 275 277 278 278 277 276 276 276 276 277 277 277 277 277 277 277 278 278 278 278 278 278 278 278 278 277 278 278 276 275 274 273 272 270 269 268 268 267 266 265 264 264 263 262 262 262 262 261 261 261 261 260 260 260 260 260 260 261 261 261 261 262 262 262 261 261 261 261 261 261 262 262 262 263 263 263 264 264 264 265 266 266 266
276 276 275 275 277 281 280 278 277 277 276 276 276 276 277 277 277 277 277 277 277 277 277 277 277 277 276 275 275 275 276 276 275 274 273 272 270 269 268 268 267 266 265 264 264 263 262 262 261 261 261 260 260 260 260 260 260 260 260 260 260 260 260 261 261 261 261 261 261 261 260 261 261 261 261 262 262 262 262 263 263 263 263 264 264 265 265
276 277 276 276 280 282 279 276 276 277 276 276 276 276 276 276 276 276 276 276 277 277 277 276 276 275 274 273 273 273 273 274 274 273 272 270 269 268 267 267 266 265 264 263 263 262 261 261 261 260 260 260 260 259 259 259 259 259 259 259 260 260 260 260 260 260 260 260 260 260 260 260 260 261 261 261 261 261 262 262 262 262 263 263 263 264 264
276 276 276 278 280 279 277 276 277 277 276 276 275 275 276 276 276 276 276 276 277 277 276 275 274 274 273 273 273 273 273 272 272 272 271 269 268 267 266 265 264 263 263 262 261 261 261 260 260 259 259 259 259 259 259 259 259 259 259 259 259 259 259 260 260 260 259 259 259 259 259 259 260 260 260 260 261 261 261 261 261 262 262 262 263 263 263
277 276 276 278 278 277 276 276 276 276 276 276 275 275 276 276 276 276 276 276 277 276 275 273 273 273 273 274 273 272 271 270 269 269 268 267 266 265 264 263 263 262 261 261 260 260 260 259 259 258 258 258 258 258 258 258 258 258 258 258 258 259 259 259 259 259 258 258 258 258 259 259 259 259 260 260 260 260 260 260 261 261 261 261 262 262 263
277 276 275 276 276 277 277 275 275 275 275 275 274 274 274 275 276 276 276 276 276 275 274 273 273 273 273 275 274 270 268 267 266 265 265 265 264 264 263 262 262 261 260 260 259 259 259 259 258 258 258 257 257 257 257 257 257 257 257 257 257 258 258 258 258 258 257 257 258 258 258 258 259 259 259 259 259 259 260 260 260 260 261 261 261 262 262
276 275 275 275 276 277 277 275 275 275 274 274 274 274 274 275 275 275 275 275 275 275 274 273 273 273 274 275 274 270 267 267 266 265 264 263 263 263 262 261 261 260 260 260 259 259 259 258 258 257 257 257 256 256 256 256 256 256 256 256 257 257 257 257 257 256 256 257 257 257 258 258 258 258 258 258 259 259 259 259 259 260 260 260 261 262 262
275 275 275 275 276 276 276 275 275 274 274 274 274 274 274 274 274 275 275 274 274 275 274 273 273 274 274 275 273 269 267 266 266 264 264 263 262 262 261 261 260 260 259 259 259 259 258 258 257 257 256 256 255 255 255 255 255 255 255 256 256 256 256 256 256 256 256 256 256 257 257 257 257 257 258 258 258 258 258 258 259 259 259 260 260 261 262
275 276 276 275 276 277 277 275 275 274 274 274 274 275 275 275 274 274 274 274 274 275 275 274 274 274 273 272 270 267 266 266 265 264 263 263 262 261 261 261 260 260 259 258 258 258 258 257 257 256 256 255 255 255 255 255 255 255 255 255 255 255 255 255 255 255 255 255 256 256 256 256 257 257 257 257 257 257 258 258 258 258 259 259 259 260 261
275 275 275 275 276 277 277 276 274 274 275 275 275 275 275 275 275 274 274 274 274 274 274 274 274 272 270 268 267 266 265 265 264 263 263 262 261 261 260 260 260 259 258 258 257 257 257 257 256 256 255 255 255 254 254 255 255 255 254 254 254 254 254 254 254 254 255 255 255 255 255 256 256 256 256 256 257 257 257 257 257 258 258 258 259 260 260
274 274 274 275 277 277 276 275 274 274 275 276 276 275 274 275 274 274 274 274 273 274 274 273 273 271 269 267 267 266 265 265 264 263 263 262 261 261 260 260 259 258 258 257 257 257 257 256 256 255 255 254 254 254 254 255 255 254 254 254 254 254 254 254 254 254 254 255 255 255 255 255 255 256 256 256 256 256 257 257 257 257 258 259 259 260 261
275 274 274 277 278 277 275 275 276 275 275 275 275 274 274 274 273 273 273 273 273 273 273 272 272 271 269 268 267 266 266 265 264 264 263 262 261 261 260 259 258 258 257 257 257 257 256 256 255 255 255 254 254 254 255 255 255 254 254 254 253 254 254 254 254 255 255 255 255 255 255 255 255 255 256 256 256 256 256 257 257 258 258 259 260 260 261
276 276 276 276 276 275 274 276 276 275 274 273 272 273 273 273 273 273 273 272 272 272 272 272 271 271 270 269 268 267 266 264 264 263 262 262 261 260 260 259 258 257 257 256 256 256 256 256 255 255 255 254 254 254 255 255 254 253 254 253 253 253 254 254 254 255 254 254 255 255 255 255 255 255 256 256 256 256 256 257 257 258 258 259 260 260 261
275 276 276 275 274 274 274 275 275 274 274 273 271 272 272 272 272 272 272 271 271 271 270 270 270 270 269 268 267 266 265 264 263 263 262 261 261 260 259 258 258 257 256 256 255 255 256 256 255 255 254 254 254 254 255 254 254 253 253 253 253 253 254 254 254 254 254 254 255 255 255 255 255 255 256 256 256 256 257 257 257 258 258 259 260 260 261
274 276 277 275 274 274 274 274 274 274 274 273 272 271 271 271 271 271 270 269 269 269 269 269 269 268 268 267 266 265 264 263 263 262 262 261 260 259 259 258 257 257 256 256 255 255 255 255 255 254 254 254 254 254 254 254 253 253 253 252 252 253 253 253 254 254 254 254 254 255 255 255 255 255 256 256 256 256 257 257 257 258 258 259 259 260 260
273 274 275 274 273 273 273 273 273 273 274 273 272 271 270 270 269 268 267 267 267 267 267 267 267 267 266 266 266 265 263 262 262 262 261 260 260 259 258 257 257 256 256 255 255 254 254 255 255 254 254 254 254 254 254 253 253 253 253 252 252 253 253 253 253 253 254 254 254 254 255 255 255 255 255 256 256 256 256 257 257 257 258 258 258 259 259
272 273 274 273 273 273 273 273 273 273 273 273 272 270 269 268 268 267 266 265 265 265 265 265 265 266 265 264 264 263 262 262 261 261 260 260 259 258 258 257 256 256 255 255 254 254 254 254 254 254 254 255 254 254 254 253 253 252 253 252 252 252 253 253 253 253 254 254 254 254 254 255 255 255 255 256 256 256 257 257 258 258 258 259 259 259 260
273 273 274 274 274 275 274 274 274 273 272 272 272 270 269 268 267 267 266 265 263 263 263 263 263 263 263 263 262 261 261 261 260 260 259 259 258 257 257 256 255 255 255 254 254 254 254 254 254 254 254 255 255 254 254 253 253 252 252 252 252 252 253 253 253 253 253 253 254 254 254 255 255 255 255 256 256 257 257 258 258 258 259 260 261 261 262
275 275 275 275 275 274 273 273 273 272 270 270 271 270 270 268 266 264 265 265 264 262 261 261 262 261 261 261 261 260 260 260 259 259 258 257 257 256 256 255 255 254 254 254 254 254 254 254 253 253 254 254 255 254 254 253 253 252 252 252 252 252 253 253 253 253 253 253 253 254 254 254 255 255 255 256 256 257 257 258 258 258 259 261 262 263 264
275 275 275 274 274 273 272 272 272 269 267 268 270 270 268 267 265 263 263 263 264 263 261 260 261 260 260 260 260 259 259 259 258 258 257 257 256 256 255 255 254 254 254 254 254 254 253 253 253 253 254 254 255 254 254 253 253 252 252 252 252 252 253 253 253 253 253 253 253 254 254 254 255 255 255 256 256 257 257 257 258 258 259 261 262 263 264
274 274 273 272 272 272 270 267 267 265 264 266 268 267 266 265 265 264 262 261 262 262 261 260 260 260 259 259 259 258 258 258 257 257 256 256 255 255 255 254 254 254 254 254 253 253 253 253 253 253 253 255 255 254 254 253 252 252 252 252 252 253 253 253 253 253 253 253 253 254 254 254 255 255 255 256 256 256 257 257 258 258 259 260 261 262 263
273 273 271 270 270 269 267 266 266 266 264 263 264 264 264 264 263 263 262 261 261 261 260 260 260 260 259 259 258 258 257 257 257 256 255 255 255 254 254 254 254 254 254 253 253 253 253 253 253 252 253 255 255 254 253 253 252 252 253 253 253 253 253 253 253 253 253 253 253 254 254 254 254 255 255 256 256 256 257 257 257 258 258 259 260 260 261
272 271 271 271 270 269 269 269 268 266 263 263 263 262 262 262 261 261 260 260 259 259 259 259 259 259 258 258 257 257 256 256 256 255 255 255 255 255 255 254 254 254 253 253 253 253 253 253 252 253 254 255 255 254 253 253 252 253 253 253 254 254 253 253 253 253 253 253 253 253 254 254 254 255 255 256 256 256 257 257 257 258 258 258 259 259 259
270 269 268 270 271 271 268 264 262 262 262 262 261 261 260 259 259 258 258 257 258 258 258 258 258 257 257 257 256 256 255 255 255 254 254 255 255 255 254 254 254 253 253 253 253 253 253 253 253 253 254 255 254 253 253 253 253 253 253 253 254 254 253 253 253 253 253 253 253 253 254 254 255 255 256 256 256 256 256 257 257 257 258 258 258 258 258
269 267 265 266 266 265 262 261 261 261 261 259 259 259 259 258 259 259 257 257 257 257 257 257 257 256 256 256 256 255 255 255 255 255 255 255 255 254 254 254 253 253 252 253 253 254 254 253 253 253 255 255 254 253 253 253 253 253 253 253 253 253 253 253 253 253 253 253 253 253 254 254 255 255 255 255 256 256 256 257 257 257 257 257 258 258 258
267 265 264 264 262 261 262 263 263 263 261 258 257 257 257 257 259 260 258 257 256 256 257 257 257 256 256 255 255 255 255 255 255 255 255 255 254 254 254 253 252 252 252 253 253 254 253 253 253 254 255 255 254 253 253 253 253 253 253 253 253 253 253 253 253 253 253 253 253 254 254 254 255 255 255 255 255 256 256 256 256 257 257 257 257 257 257
265 263 263 263 261 261 262 262 262 262 260 257 257 258 257 257 258 259 258 257 256 256 256 257 256 256 256 256 256 255 255 255 254 254 254 254 254 254 254 253 252 252 252 253 254 254 253 253 254 255 255 255 254 253 253 253 253 253 253 254 253 253 253 253 253 253 253 253 253 253 254 254 254 255 254 255 255 255 255 256 256 256 257 257 257 257 257
266 264 263 263 261 260 261 260 259 261 260 258 258 260 258 257 259 259 258 257 256 256 257 256 256 256 256 256 256 255 254 254 254 254 253 254 254 254 254 254 253 253 253 254 254 254 254 254 255 256 255 254 254 254 254 254 254 254 254 254 253 253 253 253 253 253 253 253 253 253 254 254 254 254 254 254 255 255 255 255 256 256 256 256 256 256 256
268 268 268 267 265 264 264 263 261 261 261 259 258 259 258 257 257 258 257 257 257 257 256 256 256 256 256 255 255 254 254 253 253 253 253 254 255 255 255 254 253 253 254 254 254 254 254 255 255 256 255 255 255 255 254 254 254 254 253 253 253 253 254 253 253 253 253 253 253 253 253 254 254 254 254 254 254 254 255 255 255 256 256 256 256 256 256
267 269 270 269 268 268 268 267 265 264 263 260 258 257 257 257 257 257 257 257 256 256 256 256 256 256 256 255 254 254 253 252 252 252 254 255 255 254 254 253 253 253 254 254 255 255 255 256 256 256 255 255 255 255 254 254 254 254 253 253 253 254 254 254 253 253 253 253 253 253 253 253 253 253 254 254 254 254 255 255 255 255 255 255 256 256 256
265 266 266 266 265 265 265 265 265 265 264 263 261 258 257 257 257 256 256 256 256 256 257 256 256 256 255 254 254 253 252 252 253 254 255 255 255 254 254 253 253 253 254 255 256 256 256 256 256 256 255 255 255 255 254 254 254 254 254 254 254 254 254 254 253 253 253 253 253 253 253 253 253 253 253 254 254 254 254 254 255 255 255 255 255 255 255
263 263 263 263 263 263 263 262 263 263 262 262 261 259 258 258 258 257 257 257 257 257 256 255 255 254 254 254 254 253 253 254 254 254 255 255 254 254 253 253 253 253 254 255 257 257 256 256 256 256 255 255 255 255 255 254 254 254 254 254 254 254 254 254 253 253 253 253 253 253 253 253 253 253 253 253 253 254 254 254 254 254 254 254 254 255 255
262 262 262 262 262 262 262 261 262 262 261 261 260 260 260 259 259 259 259 258 258 257 256 255 255 254 254 255 255 254 254 254 254 254 254 254 254 253 252 253 253 253 252 254 257 257 256 256 256 256 256 256 255 255 255 254 254 254 254 254 254 254 254 254 254 254 254 254 253 253 253 253 253 253 253 253 253 253 253 254 254 254 254 254 254 254 254
261 261 261 261 261 261 261 261 261 260 260 260 260 260 260 260 260 259 259 258 258 258 256 255 255 255 255 255 254 254 254 255 254 254 254 254 253 253 252 253 254 253 253 254 256 257 256 256 256 256 256 256 256 255 255 255 255 254 254 254 254 254 254 254 254 254 254 254 254 253 253 253 253 253 253 253 253 253 253 253 253 253 253 254 254 254 254
259 260 260 260 260 260 260 260 259 259 259 259 259 259 260 259 259 259 258 258 258 257 256 256 255 254 253 253 253 253 255 256 255 255 254 254 253 253 253 254 255 256 256 256 256 256 256 256 256 256 256 256 256 256 255 255 255 255 254 254 254 254 254 254 254 254 254 254 254 254 253 253 253 253 253 253 253 253 253 253 253 253 253 253 253 254 254
257 258 259 258 258 258 258 257 258 258 259 259 259 259 259 259 258 258 258 258 257 257 256 256 254 253 253 253 253 254 256 256 255 254 254 253 253 252 252 255 257 257 257 257 257 256 256 257 256 256 257 257 256 256 256 255 255 255 255 254 255 255 254 254 254 254 254 254 254 254 254 253 253 253 253 253 253 253 253 253 253 253 253 253 253 253 254
257 258 258 258 257 257 257 257 257 258 258 258 259 259 259 258 258 257 257 258 257 257 256 256 255 254 255 255 255 255 256 255 255 254 253 252 252 251 250 254 258 258 257 257 257 257 257 257 257 257 257 257 256 256 256 255 255 255 255 255 255 254 254 254 254 254 254 254 254 254 254 254 253 253 253 253 253 253 253 253 253 253 253 253 253 253 254
257 257 258 257 257 257 257 257 256 257 257 259 260 260 259 258 258 258 258 258 257 256 256 256 255 255 255 255 255 255 255 255 254 254 253 253 253 252 251 254 258 258 256 257 257 257 257 257 257 257 257 257 256 256 256 255 255 255 255 255 255 254 254 254 254 254 254 253 253 254 254 253 253 253 253 253 253 253 253 253 253 253 253 253 253 254 254
257 257 257 257 257 257 257 257 256 256 257 258 260 260 259 258 258 257 257 257 256 255 255 256 255 255 255 254 253 253 254 255 255 254 254 255 256 255 254 256 258 257 256 257 257 257 257 257 257 257 257 256 256 256 256 255 255 255 255 255 254 254 254 254 253 253 253 253 253 253 253 253 253 253 253 253 253 253 253 253 253 253 253 253 254 254 254
258 257 257 258 258 258 257 256 255 255 256 258 259 259 258 258 258 258 257 257 256 255 255 255 255 255 255 254 253 253 254 256 255 254 253 254 255 256 257 257 258 258 257 257 257 257 257 257 257 257 257 256 256 256 255 255 255 255 254 254 254 254 253 253 253 253 253 253 253 253 253 253 253 253 253 253 253 253 253 253 253 253 253 253 254 254 254
259 259 259 259 258 258 257 257 257 257 257 258 258 258 258 258 259 259 258 257 257 256 256 256 256 255 255 255 254 255 256 256 256 255 253 253 254 256 258 258 257 257 257 257 257 257 257 257 257 257 257 256 256 256 255 255 255 254 254 254 254 253 253 253 253 253 253 252 252 252 252 252 252 253 253 253 253 253 253 253 253 253 253 253 254 254 254
259 259 258 257 258 259 259 259 258 258 257 256 255 256 257 258 258 258 258 258 258 258 257 257 257 257 256 256 256 256 256 256 256 256 255 255 255 257 257 257 257 257 257 256 257 257 257 257 257 256 256 256 255 255 255 254 254 254 254 254 253 253 253 253 252 252 252 252 252 252 252 252 252 252 253 253 253 253 253 253 253 253 253 253 253 253 254
258 257 257 257 258 258 258 257 256 255 254 253 253 256 258 259 259 259 259 259 259 258 258 257 257 257 257 256 256 255 255 255 255 257 257 257 257 257 257 257 257 257 256 256 257 257 257 257 256 256 255 255 255 254 254 254 254 254 254 254 253 253 253 252 252 252 252 251 251 251 251 251 252 252 252 252 253 253 253 253 253 253 253 253 253 253 254
258 257 257 257 256 255 255 255 254 253 253 254 255 257 258 258 258 259 259 258 258 258 258 257 257 257 257 257 256 256 256 254 254 256 258 258 258 258 258 257 257 257 257 257 257 257 257 256 256 256 255 255 254 254 254 254 254 254 254 253 253 253 252 252 252 251 251 251 251 251 251 251 251 252 252 252 253 253 253 253 253 253 253 253 253 253 253
258 257 256 255 254 253 253 253 252 252 254 256 257 257 258 257 257 257 257 257 257 258 258 258 258 258 258 257 257 257 257 256 255 256 257 257 257 257 257 257 257 257 257 256 257 257 257 256 256 256 255 255 254 254 254 254 254 253 253 253 253 252 252 251 251 251 251 251 251 250 250 251 251 251 251 252 252 252 253 253 253 253 253 253 253 253 253
257 255 254 253 253 253 253 252 252 254 256 257 257 257 257 256 255 256 256 257 257 257 257 258 259 259 259 258 258 258 258 257 257 257 257 257 257 256 256 256 256 256 256 256 257 257 257 256 256 255 255 255 254 254 254 253 253 253 253 252 252 252 252 252 251 251 251 251 251 250 250 251 251 251 251 252 252 252 253 253 253 253 253 253 253 253 253
256 255 255 255 255 255 255 255 256 257 257 257 257 257 256 255 256 256 257 256 256 256 256 257 258 259 259 259 259 259 259 258 258 258 258 257 257 257 257 257 257 257 256 256 256 256 256 256 255 255 254 254 254 254 253 253 253 253 253 252 252 252 252 252 252 252 251 251 251 251 251 251 251 251 251 252 252 252 252 253 253 253 253 253 253 253 253
256 256 255 255 254 254 254 255 256 257 257 256 256 256 256 256 256 256 255 255 256 256 256 256 257 258 259 259 258 259 259 258 258 258 258 258 258 258 257 257 257 257 256 256 256 256 256 255 255 254 254 254 253 253 253 253 253 253 253 253 252 252 252 252 252 252 252 252 251 251 252 252 252 251 252 252 252 252 252 252 252 252 252 252 252 253 253
Wind_Speed
1 1 1 1 1 2 4 5 6 5 5 5 4 6 6 3 4 7 5 7 10 7 6 7 6 6 7 7 7 7 5 5 5 5 5 4 3 3 3 3 4 4 6 7 8 10 11 12 14 16 16 16 15 18 19 18 21 24 22 25 26 22 21 22 21 21 23 22 21 23 25 24 24 26 30 32 34 35 35 34 34 33 29 29 31 31 29
3 3 1 1 2 4 6 6 6 6 6 8 8 7 7 8 9 10 10 13 13 9 8 8 6 4 5 5 5 6 7 6 5 5 4 4 4 3 3 3 3 4 5 7 8 9 10 12 14 16 17 16 17 20 20 20 23 24 24 26 24 20 21 22 20 22 23 21 22 23 23 23 23 25 28 29 31 34 33 33 35 33 31 33 33 30 29
2 3 3 3 3 4 7 8 8 8 7 8 9 9 8 8 10 11 11 13 12 6 3 3 4 4 4 5 3 4 6 6 5 5 4 4 4 4 3 3 3 4 5 6 7 8 10 11 13 15 16 16 18 20 19 20 23 24 25 25 22 21 22 21 21 23 22 21 24 25 24 24 23 24 25 25 27 29 29 31 34 33 34 37 35 32 31
2 2 3 3 4 5 8 11 11 10 9 7 7 6 6 7 8 9 9 9 7 2 2 1 3 3 3 3 2 1 3 6 6 5 5 4 4 4 4 3 3 4 5 5 6 7 8 11 14 15 14 16 18 18 17 19 22 23 24 23 22 22 22 21 22 22 21 22 25 25 26 26 26 27 27 26 26 26 26 28 30 32 35 36 36 36 34
2 2 3 4 4 5 5 7 8 8 9 8 7 6 7 8 8 6 6 6 4 1 0 3 3 1 2 2 0 1 2 4 6 5 4 4 4 4 4 3 3 3 4 5 6 6 8 10 13 13 13 16 16 15 17 19 21 21 21 21 21 21 21 21 22 21 21 23 25 26 27 28 30 30 29 28 27 26 26 27 26 29 32 33 34 35 35
1 4 5 2 3 3 3 3 2 2 4 5 6 6 6 7 6 6 6 6 5 5 5 4 2 2 1 0 2 3 3 3 5 4 4 5 5 5 4 4 4 3 4 4 4 6 8 10 11 12 13 14 13 14 17 19 19 19 20 19 19 20 20 20 20 20 21 23 25 26 28 29 30 28 27 28 28 27 27 28 28 30 31 30 31 32 34
1 3 1 3 2 3 3 3 3 1 2 1 4 6 7 9 9 9 10 9 8 8 5 1 3 3 2 3 3 2 3 3 3 5 5 5 5 4 3 4 4 3 3 3 4 6 8 10 11 13 13 12 13 15 16 17 17 18 18 18 18 18 19 19 19 20 22 23 25 26 28 28 27 26 26 27 27 27 28 29 30 31 31 30 30 32 34
0 1 1 1 4 5 3 5 5 3 2 2 3 5 7 8 8 8 8 8 8 5 2 4 4 2 1 0 1 3 3 3 3 3 5 5 5 5 5 4 4 2 2 2 5 7 9 11 12 12 12 11 13 14 14 16 16 16 16 16 17 17 17 18 18 19 21 23 25 25 26 25 25 26 27 26 27 29 31 31 31 31 32 34 33 33 35
1 0 3 3 5 7 4 1 1 1 1 1 1 2 5 5 6 7 6 7 7 2 4 5 2 1 1 2 2 1 4 5 6 6 7 7 7 7 6 4 3 0 2 4 6 8 9 11 13 12 12 11 12 14 15 16 15 15 15 16 16 16 17 17 17 19 21 23 24 24 24 24 25 25 25 27 30 30 31 32 34 35 36 37 37 37 39
3 2 2 3 4 4 2 2 3 4 4 4 4 2 4 5 7 9 7 6 5 0 4 4 2 2 2 2 2 2 4 5 7 7 8 8 7 7 5 3 2 3 5 6 8 9 10 12 13 11 11 13 14 15 16 15 14 14 15 15 16 16 16 16 19 22 23 22 21 22 23 23 23 24 25 27 29 29 30 33 37 38 38 38 41 41 40
1 2 1 2 3 4 3 5 5 5 5 4 4 4 5 4 3 2 1 1 1 3 4 4 4 2 1 3 3 3 3 4 6 7 7 7 6 5 4 3 3 5 6 8 9 11 13 13 12 11 13 14 15 15 16 15 15 15 16 16 15 15 16 19 22 24 22 20 20 21 22 22 23 24 25 26 28 30 31 32 33 36 37 38 43 43 41
3 3 3 3 4 5 2 6 6 5 5 6 5 3 5 3 1 2 3 2 1 3 4 4 3 3 4 3 2 4 6 6 7 7 8 8 7 6 4 4 5 6 8 10 12 13 14 13 13 13 14 13 13 15 16 16 17 17 17 16 15 17 20 22 23 22 21 21 21 21 22 23 24 25 26 27 29 30 29 29 29 33 34 35 39 42 42
4 5 4 3 4 5 4 7 7 6 5 6 2 4 4 1 1 1 2 1 1 3 5 4 3 3 2 1 3 6 7 6 6 7 7 7 6 6 6 6 7 9 11 12 13 13 14 14 14 14 14 13 15 16 16 17 19 19 18 17 18 21 22 22 22 23 23 22 21 21 23 24 25 26 26 27 28 28 28 30 30 32 33 32 34 38 40
4 4 3 3 5 4 4 8 7 6 4 1 4 4 2 1 0 1 2 1 1 3 4 5 4 3 2 4 4 5 6 6 6 7 6 6 6 5 6 7 8 10 11 12 13 14 14 14 14 14 13 14 16 16 16 19 20 19 18 20 21 22 22 23 23 24 24 23 22 23 23 24 25 27 27 27 28 28 29 30 31 31 32 30 29 33 36
2 1 1 2 5 3 6 9 6 3 3 3 4 3 2 3 1 0 1 3 2 3 5 5 3 4 4 4 4 5 6 7 7 8 8 8 7 6 7 8 9 9 11 12 14 15 15 14 14 13 13 15 16 16 18 20 19 19 20 21 22 22 23 24 24 24 25 24 24 24 25 25 26 28 28 28 28 28 28 29 29 30 29 27 26 28 30
4 3 4 4 4 5 7 7 4 4 5 4 4 3 2 3 2 1 2 3 2 2 4 5 4 5 5 5 5 5 5 7 8 8 8 8 8 8 8 9 9 9 11 13 15 16 16 15 14 14 14 15 16 18 19 20 19 19 21 21 21 23 24 25 26 26 26 26 26 26 27 27 27 28 28 29 29 28 27 27 27 27 27 25 24 25 27
3 5 6 4 3 4 6 4 2 3 3 2 4 3 2 2 3 2 2 3 3 2 2 4 4 4 4 5 6 5 6 7 8 8 7 8 8 8 9 9 9 10 11 13 14 16 17 16 15 14 14 15 17 19 20 19 19 20 21 21 22 23 24 25 26 27 27 27 27 27 27 26 27 28 28 29 28 28 26 25 25 26 26 24 24 25 25
4 6 7 6 5 5 6 7 4 3 3 3 4 4 4 4 3 2 1 2 2 2 2 2 3 4 2 3 4 5 5 6 6 6 6 7 7 8 9 9 10 10 11 12 14 17 18 17 15 15 15 15 18 20 19 19 19 20 20 21 22 23 24 26 26 26 27 28 28 27 26 25 26 27 27 28 28 28 26 26 26 26 26 25 24 24 24
2 4 3 3 3 3 4 6 6 5 5 5 5 5 5 5 4 3 1 1 1 1 0 3 5 5 3 3 4 4 4 5 6 6 7 8 8 9 9 9 10 10 11 12 14 16 19 18 16 16 16 16 18 19 18 18 19 19 20 20 21 23 24 25 26 26 27 28 27 27 26 26 26 27 27 27 28 28 27 27 27 26 25 25 24 23 25
4 5 6 4 3 4 3 5 5 5 6 6 5 5 5 4 3 3 3 3 3 3 4 5 6 5 5 5 5 4 4 5 6 7 7 8 8 8 9 10 11 11 12 14 15 17 19 20 18 18 18 18 18 18 18 18 18 18 19 19 20 22 24 24 26 26 25 26 26 27 27 27 27 27 27 27 28 29 29 28 28 28 27 26 25 26 28
5 9 10 7 6 8 8 8 8 7 6 6 6 5 4 3 3 4 5 6 6 6 6 5 6 6 6 6 5 5 5 6 6 6 7 7 8 9 10 11 11 12 13 14 16 18 20 20 19 19 19 19 19 18 18 18 16 17 17 18 19 22 24 24 25 25 24 25 26 27 28 28 28 28 27 27 28 30 31 29 29 30 31 30 29 29 31
6 8 7 4 3 6 6 5 6 6 5 5 5 5 4 5 6 6 6 7 8 9 9 8 6 6 6 6 6 6 7 7 8 8 8 9 10 11 12 12 12 13 14 15 17 19 20 19 19 19 20 20 19 19 18 17 15 15 16 17 20 22 23 24 24 24 24 25 26 26 27 29 29 30 29 27 26 28 31 30 29 30 31 33 33 32 34
6 6 6 6 4 4 3 2 4 3 4 6 6 6 6 7 8 8 7 6 6 7 10 12 10 9 9 9 8 8 9 10 10 10 11 12 13 13 13 13 13 14 15 15 17 19 19 19 19 20 21 21 20 19 18 15 13 14 15 17 20 22 23 23 24 24 25 25 26 26 27 28 28 29 31 30 28 28 29 29 28 29 30 31 31 31 31
5 3 5 5 5 3 2 4 5 4 5 6 6 7 7 7 9 10 10 9 8 7 8 11 14 13 13 11 10 10 11 11 11 11 11 12 13 13 13 13 14 16 16 16 17 18 18 19 19 20 21 21 20 18 17 14 13 14 15 17 20 21 22 23 24 24 24 25 25 26 26 27 27 28 29 30 31 33 33 29 26 26 27 28 28 27 26
5 3 4 5 4 3 3 3 4 6 8 8 6 6 7 8 8 9 10 11 11 10 8 10 12 14 14 13 12 12 12 12 11 11 12 13 13 14 14 15 16 16 17 16 17 18 18 19 20 21 22 21 19 18 16 14 13 15 16 17 18 20 21 22 24 24 24 25 25 25 25 26 26 27 27 27 29 33 37 36 31 26 23 22 24 25 25
7 4 3 2 3 3 3 1 3 6 10 11 8 6 7 7 7 9 10 11 11 11 11 11 12 12 13 14 14 13 13 13 13 12 13 14 15 15 16 16 16 16 16 17 18 18 19 20 20 21 22 21 18 16 14 13 14 16 16 16 17 18 20 20 21 23 24 24 24 25 25 26 26 26 26 27 28 29 31 34 35 33 29 25 24 24 27
5 2 3 1 7 5 5 5 4 3 7 10 10 7 6 6 7 7 8 9 10 11 12 12 11 11 11 12 13 13 13 13 13 13 14 16 17 17 16 16 15 15 16 18 19 19 20 20 21 21 21 19 16 15 14 14 15 16 16 15 16 18 19 19 20 21 23 23 24 25 26 26 25 25 26 27 27 27 26 26 28 31 34 33 31 28 27
3 2 5 5 8 5 4 3 1 2 3 6 8 8 6 5 6 6 6 8 9 10 11 12 12 12 12 13 13 13 13 13 14 15 16 17 17 16 14 14 15 15 16 19 20 21 21 20 20 20 20 18 16 16 15 14 14 15 15 15 16 18 19 20 20 21 22 23 24 25 25 24 24 25 26 26 26 26 26 25 25 26 29 33 35 33 28
7 6 6 8 7 3 2 1 2 2 4 4 5 6 7 6 5 5 6 9 10 10 11 13 13 14 15 15 14 14 14 15 16 16 17 16 15 14 13 14 15 16 18 20 20 19 18 16 17 19 20 19 17 17 15 14 14 15 15 15 16 17 19 20 20 21 22 24 24 23 23 22 23 24 25 25 24 24 24 24 24 25 26 29 32 33 32
5 4 4 6 5 2 3 6 6 5 6 7 6 7 7 7 6 6 7 9 10 11 12 13 13 14 15 16 16 17 17 16 17 17 16 15 15 14 15 15 15 16 18 19 18 16 15 16 19 21 21 19 18 17 16 15 15 15 14 14 15 16 18 19 19 20 21 23 23 22 21 22 23 23 24 24 23 23 23 23 23 23 25 26 27 27 30
2 3 1 2 2 3 6 7 6 5 6 7 7 6 7 7 7 8 8 8 10 12 13 14 14 15 16 17 18 17 17 17 17 16 16 16 16 16 16 15 16 17 18 19 18 17 17 20 21 21 20 19 18 18 16 15 14 13 12 13 14 16 17 17 17 18 19 21 22 21 21 21 22 23 23 23 22 22 23 23 23 22 23 24 24 25 27
3 2 2 2 3 4 6 6 6 7 7 6 7 8 9 9 9 9 9 8 11 13 14 14 16 17 18 17 17 16 16 16 16 16 16 17 18 17 16 16 16 17 18 19 19 19 19 21 21 20 19 18 17 15 13 11 10 10 11 12 14 16 17 17 16 17 18 20 20 20 20 20 22 22 22 22 22 22 22 22 22 22 22 23 24 25 26
4 5 6 5 5 5 7 7 7 8 8 7 9 11 12 12 13 13 12 11 12 13 14 16 17 18 16 15 14 15 14 14 14 16 18 19 17 15 13 13 14 16 17 19 19 19 20 21 21 18 15 13 12 10 9 8 8 9 10 12 14 16 17 16 16 16 18 19 19 18 19 20 21 21 21 21 21 21 21 21 20 21 22 22 23 25 25
11 9 8 6 6 6 7 7 7 7 7 8 10 12 13 14 15 16 15 14 13 14 16 17 17 15 14 13 13 13 12 12 13 15 17 16 14 12 12 13 15 17 18 19 20 19 19 19 17 14 11 9 8 7 7 7 8 9 10 12 13 15 15 15 15 16 18 18 19 19 19 19 20 20 20 21 21 20 20 20 19 20 21 22 23 25 24
15 12 10 9 8 7 7 6 6 7 6 6 8 11 13 15 16 16 15 15 16 17 17 16 14 13 13 13 13 14 15 15 16 17 17 15 14 14 14 15 16 17 19 19 19 17 15 13 11 10 9 8 7 7 6 7 7 9 10 11 13 13 14 14 15 16 17 18 18 19 19 19 20 20 19 20 20 19 19 19 19 19 20 21 23 24 24
15 12 11 12 13 12 11 10 10 10 10 9 9 10 12 14 15 15 15 16 16 16 14 12 12 13 14 15 16 16 17 18 18 18 17 16 15 14 14 15 16 18 20 20 17 12 10 9 8 8 8 8 7 6 6 6 7 9 10 11 12 13 13 14 15 16 17 17 17 18 18 19 19 19 19 19 19 19 19 19 19 19 19 20 21 22 23
16 14 13 13 14 14 15 16 15 13 13 12 12 12 13 13 14 15 14 14 14 14 13 13 13 14 15 16 16 17 17 17 17 17 17 16 15 14 16 17 18 18 19 18 15 10 8 9 9 9 9 8 6 6 6 6 8 9 10 11 12 12 13 13 14 16 16 16 17 17 18 19 19 20 19 19 19 18 18 18 18 19 19 19 20 20 21
14 16 17 16 14 14 15 16 15 14 14 13 14 15 15 14 13 13 13 13 13 13 13 14 15 15 15 14 14 16 17 18 17 17 17 16 15 16 17 19 20 19 18 16 15 13 13 13 12 11 10 9 7 7 7 7 8 10 10 11 12 12 13 13 14 15 16 17 17 18 18 18 19 20 20 19 19 18 18 17 17 18 19 19 19 19 20
10 13 15 16 15 15 15 14 14 15 16 16 16 16 15 14 13 13 13 14 14 13 14 15 14 14 14 14 15 18 19 18 17 17 16 15 14 16 19 21 22 20 18 17 16 15 16 15 14 13 12 10 9 8 8 9 10 11 11 12 13 13 13 14 15 16 17 17 18 18 19 19 19 19 19 20 19 19 18 17 17 18 18 18 18 19 19
10 13 14 14 15 15 16 15 16 18 19 19 18 17 16 15 14 15 15 16 15 14 15 15 15 16 17 17 18 19 18 16 15 15 14 13 13 15 18 21 20 16 13 12 12 12 12 12 13 13 12 10 10 10 10 10 12 12 13 14 14 14 15 15 16 17 18 18 18 19 19 19 19 19 19 19 19 19 19 18 18 18 18 18 18 19 18
12 13 14 14 15 16 16 17 18 18 18 19 20 19 18 16 15 16 17 18 17 16 16 17 18 19 19 19 19 18 17 16 15 14 13 14 14 13 16 19 18 13 10 9 9 9 10 11 12 13 13 12 12 13 12 13 14 15 16 16 17 17 17 17 17 18 18 19 19 19 20 20 20 19 19 19 20 20 19 19 19 18 18 18 18 19 18
14 14 13 14 16 17 17 17 17 17 18 19 20 20 19 19 19 18 18 17 16 16 17 18 19 20 19 18 18 18 18 18 17 16 16 18 17 15 16 19 18 14 11 11 11 11 12 13 14 14 15 14 14 15 15 15 16 18 18 19 20 19 19 20 20 20 19 19 19 20 20 20 20 20 20 20 20 20 19 19 19 19 18 18 18 18 17
16 15 14 16 17 18 18 17 17 17 18 20 20 19 20 21 21 20 19 18 17 17 18 19 19 20 20 19 18 19 20 20 19 18 19 20 20 19 20 21 21 17 16 18 18 17 17 18 17 17 17 17 16 17 17 18 19 20 21 21 22 22 22 22 23 22 22 21 21 21 21 21 20 20 20 20 20 19 19 19 19 19 19 19 18 17 17
16 16 17 18 18 17 16 16 16 16 18 19 18 17 18 20 21 22 22 21 20 20 20 20 21 21 22 21 20 21 22 22 20 18 17 17 18 19 20 20 18 16 15 17 18 19 19 19 19 18 18 17 17 17 18 19 20 22 22 23 24 24 24 24 24 24 24 23 23 23 23 22 21 20 20 20 19 19 19 19 19 19 19 18 17 17 17
16 17 19 19 17 16 17 18 18 17 17 16 14 14 16 18 20 21 22 23 23 23 23 23 23 23 23 23 23 23 23 22 20 17 15 14 14 16 16 14 12 12 12 13 14 16 16 16 16 16 17 17 18 19 20 21 23 24 24 25 25 25 25 25 25 25 25 25 25 25 24 23 21 20 20 19 19 19 19 19 18 18 18 17 17 17 16
17 17 17 17 18 19 19 18 17 16 14 12 12 15 19 20 19 20 21 22 23 24 24 24 24 24 23 23 23 23 23 23 22 22 21 20 19 19 18 17 17 18 18 18 19 20 19 19 20 20 20 21 21 22 22 23 23 23 24 24 24 24 24 25 25 25 25 25 25 25 24 23 21 20 19 19 19 19 18 18 17 17 17 17 17 17 16
16 16 16 19 19 18 15 13 13 12 11 10 12 16 20 20 20 21 21 21 22 22 23 23 24 24 23 23 23 23 23 22 22 23 24 24 23 23 21 20 21 21 21 22 22 22 21 22 22 22 22 22 21 21 22 22 23 23 24 25 25 25 25 24 24 24 24 24 24 24 23 21 20 20 19 19 19 18 17 17 17 16 16 16 16 16 16
16 16 18 19 17 15 13 13 13 13 15 16 18 19 18 16 16 17 18 19 20 21 22 23 24 24 23 23 24 24 23 21 19 19 19 18 17 17 17 16 16 17 17 18 19 19 19 19 20 20 20 20 21 22 23 24 24 24 24 24 24 23 23 23 23 23 23 22 22 22 21 21 21 20 20 20 20 18 17 17 16 16 16 16 16 15 15
16 16 15 14 13 14 15 14 14 15 19 21 22 21 17 14 13 14 16 17 18 19 21 22 23 23 23 23 23 24 24 23 22 21 20 17 16 16 17 17 17 18 20 21 22 22 22 22 23 23 22 22 23 23 23 23 23 22 22 22 22 22 22 23 23 22 22 22 21 21 21 22 22 22 21 21 19 18 17 16 16 16 16 16 16 15 15
13 13 13 14 16 18 19 18 17 19 21 21 20 19 16 14 14 17 18 18 18 19 20 21 22 22 22 22 22 22 22 23 24 24 24 22 22 22 23 23 24 25 25 26 26 26 25 24 23 22 21 21 21 21 21 21 21 21 21 21 21 21 21 21 21 20 20 20 19 19 20 20 20 20 19 18 17 16 16 16 16 16 16 16 16 16 16
12 13 15 16 17 19 21 22 21 21 20 18 17 17 16 16 18 19 18 16 17 18 19 20 21 21 21 21 21 21 21 21 22 23 23 23 24 24 24 25 26 26 26 26 25 24 22 21 20 19 19 19 20 20 20 20 20 20 19 19 19 18 18 18 18 18 17 17 17 16 16 16 16 17 16 16 15 15 16 16 16 16 16 16 16 16 16
14 16 16 16 16 17 19 22 23 23 21 19 18 17 17 18 19 18 17 17 18 18 18 18 19 19 18 18 18 18 18 18 19 19 20 20 21 21 21 22 22 22 22 21 21 20 20 20 19 19 19 19 19 19 19 19 19 18 18 17 17 16 16 16 16 16 16 15 15 15 15 15 15 16 16 16 16 16 16 17 17 17 17 17 17 17 17
Wind_Direction
348 249 154 88 57 265 259 269 277 279 288 283 256 237 243 254 262 253 273 308 291 283 300 287 259 239 236 226 210 192 160 136 128 121 126 131 121 109 96 77 65 52 39 31 26 19 12 6 2 359 355 355 353 350 351 349 348 350 348 346 350 349 344 344 343 340 341 341 340 341 341 342 341 340 343 344 345 347 348 347 345 344 343 340 339 339 339
304 305 285 221 252 276 272 266 265 267 266 264 263 261 255 253 256 263 281 284 278 281 290 286 282 273 264 256 223 167 137 129 129 134 152 153 141 134 111 86 72 61 45 32 28 19 9 4 0 354 352 351 348 346 346 345 345 346 345 346 348 343 340 341 339 338 339 338 339 340 340 339 337 337 340 340 341 344 345 342 342 342 339 339 340 338 335
315 331 323 271 259 276 279 274 262 253 255 258 257 257 256 257 262 270 275 276 280 285 281 306 349 18 12 359 17 118 138 149 149 159 179 166 151 145 121 103 83 61 45 36 30 16 5 2 356 349 347 345 342 342 342 341 341 341 342 344 343 338 338 338 336 337 338 337 337 338 338 338 335 335 336 335 337 340 339 338 339 338 336 337 338 336 334
277 317 328 291 289 292 280 273 264 244 233 238 241 238 237 238 251 266 269 269 279 289 116 34 6 38 27 6 32 99 179 171 163 177 185 168 154 139 121 112 88 63 47 37 27 14 2 353 347 344 343 338 337 339 338 336 335 336 340 341 336 335 336 335 335 337 336 335 336 336 337 337 335 336 336 334 335 335 334 334 335 334 334 335 334 334 334
252 276 274 273 312 323 282 262 254 225 211 220 228 230 234 232 237 252 257 258 275 296 149 292 288 215 229 256 171 282 231 157 151 168 168 149 135 122 115 110 92 73 54 38 25 7 351 342 339 339 335 331 332 332 329 329 331 333 335 334 332 332 333 332 333 335 334 334 334 334 335 335 335 336 336 335 335 333 331 331 330 329 331 331 330 331 330
249 250 254 299 358 327 255 260 274 184 177 209 231 244 253 253 256 267 274 282 299 301 293 294 288 182 195 127 83 53 42 106 141 151 130 118 117 115 120 117 98 72 51 34 7 346 338 332 328 327 327 327 325 321 322 325 328 329 328 328 329 328 328 330 332 332 332 332 331 331 332 333 334 334 333 332 333 332 330 329 328 327 328 327 326 326 325
249 254 298 18 325 235 226 272 279 117 89 239 257 271 270 266 269 274 279 282 283 286 295 8 87 100 87 70 76 76 69 92 140 146 130 125 130 132 131 122 103 68 45 16 342 331 325 320 320 323 324 323 318 316 320 322 322 323 323 323 324 324 324 327 328 329 330 329 328 328 329 331 331 329 329 330 330 329 328 326 326 325 324 322 321 321 322
291 320 98 216 264 269 274 259 232 196 197 239 259 273 259 251 257 260 262 265 264 275 10 75 84 80 80 84 212 182 144 86 72 118 132 134 133 127 119 118 107 71 35 336 321 316 312 315 319 321 321 319 317 316 317 317 317 318 319 319 320 321 321 323 325 327 327 325 324 325 326 327 327 326 327 327 325 326 326 324 323 321 320 320 319 318 319
127 97 243 254 302 317 318 293 162 122 141 141 102 273 254 253 270 268 264 271 273 275 92 94 83 50 357 294 275 114 89 66 56 70 98 111 118 119 116 121 128 103 295 296 306 308 310 314 317 319 319 316 314 313 312 313 314 314 314 315 316 317 317 320 322 322 322 321 321 321 322 322 322 322 322 321 322 324 324 321 320 320 319 318 317 316 317
115 91 301 311 324 303 242 132 88 73 74 74 65 337 272 254 255 255 255 270 284 123 118 119 92 57 5 303 276 66 70 85 89 87 99 113 125 136 144 165 209 271 294 305 312 311 309 312 316 316 311 308 310 311 310 312 311 310 311 311 312 314 315 315 315 315 317 318 315 315 316 316 316 316 316 316 317 319 318 317 317 318 317 316 315 315 314
144 130 217 249 256 254 201 146 126 103 92 77 49 348 297 274 261 247 211 238 41 108 130 127 102 92 294 274 234 180 138 135 130 125 132 138 145 165 188 229 270 294 304 308 310 309 308 311 314 308 304 309 312 309 308 310 308 306 308 309 310 310 308 307 310 313 315 313 310 311 311 309 309 310 310 311 312 313 313 312 312 312 312 312 313 313 312
226 199 220 233 249 256 182 135 136 130 105 78 51 328 280 276 4 64 81 61 51 116 128 127 131 198 237 257 220 152 135 136 144 151 159 164 172 191 220 265 294 303 305 305 306 307 308 311 310 308 309 312 307 303 306 306 303 304 308 308 306 303 303 305 308 311 310 308 306 307 306 305 305 305 306 307 309 309 308 305 304 305 306 306 307 308 310
229 223 237 256 260 245 177 146 145 130 90 72 79 242 239 204 169 155 103 8 304 144 148 163 191 226 226 138 124 133 131 135 151 164 174 184 200 228 256 281 297 301 303 305 303 303 307 309 308 308 309 304 298 300 302 299 300 306 309 305 302 303 304 306 306 308 309 307 303 302 303 303 303 303 304 304 304 303 303 302 301 299 300 300 300 303 307
226 230 244 288 286 259 155 134 131 113 86 110 209 213 217 206 231 154 152 227 248 168 185 205 200 191 158 126 131 152 158 160 170 179 189 208 230 249 267 281 291 295 298 298 296 297 302 304 302 304 301 295 296 298 295 296 304 310 306 303 304 305 305 305 305 307 309 307 304 302 303 303 302 302 302 302 300 300 300 300 298 296 295 295 293 295 301
178 202 233 283 282 253 128 117 121 143 166 195 194 183 196 208 223 9 196 223 213 176 206 230 200 167 173 172 171 181 183 182 194 203 208 220 233 243 260 276 284 287 288 287 289 294 299 299 299 301 296 293 293 292 292 301 310 309 305 305 307 305 304 304 305 307 307 307 306 305 304 304 302 300 301 301 300 300 300 298 296 294 294 294 291 290 294
151 170 210 219 225 203 163 145 161 202 196 168 152 161 184 181 186 254 255 258 271 185 211 237 212 183 190 198 192 193 198 199 204 208 211 221 236 251 265 277 282 281 280 281 286 292 297 298 299 298 293 291 289 288 295 307 310 306 306 309 307 304 305 305 306 307 308 309 310 308 307 307 304 301 302 302 300 300 299 296 293 292 292 293 292 290 291
191 209 225 216 181 192 206 205 182 176 187 138 127 154 205 201 198 216 228 252 292 313 276 255 230 206 204 199 192 191 199 202 202 204 212 226 243 259 269 276 282 281 279 281 285 291 296 299 299 297 294 289 285 289 300 308 307 305 307 308 304 304 305 305 307 310 311 311 311 310 310 309 305 303 303 302 300 300 299 295 291 290 291 292 291 289 289
295 276 254 231 218 217 225 237 239 201 196 175 148 175 218 226 229 257 256 240 284 341 343 271 242 239 234 205 193 185 181 191 199 208 225 239 249 261 269 276 283 284 280 279 281 288 295 300 298 297 295 288 285 293 303 307 305 305 306 304 302 303 304 306 309 311 310 310 312 312 312 310 306 304 304 302 300 299 297 294 290 288 289 290 290 289 289
315 290 259 217 224 217 204 223 238 237 227 203 173 191 221 230 243 260 246 199 245 345 286 237 241 251 255 233 215 194 182 201 220 231 243 250 253 260 267 276 282 280 275 276 279 284 291 297 299 298 297 293 293 298 303 305 305 305 303 301 301 303 305 307 309 310 309 310 312 312 311 310 307 305 304 301 298 296 295 293 292 290 289 289 288 287 288
214 254 264 265 272 266 237 223 225 233 238 223 202 208 215 204 210 225 212 206 224 231 228 227 235 250 252 234 224 210 200 215 230 240 248 253 257 263 269 275 279 277 274 276 279 282 287 294 299 299 298 300 302 303 305 307 307 303 300 300 302 303 304 306 308 309 310 310 310 309 308 308 307 305 304 303 299 295 294 292 291 291 289 286 285 285 286
254 274 273 268 274 276 263 244 234 236 237 224 208 204 201 191 204 224 229 228 228 231 234 228 225 238 244 234 225 220 220 227 238 247 253 258 261 266 273 277 279 277 274 276 279 282 287 293 299 299 300 304 307 306 306 308 306 300 299 302 303 303 305 307 309 310 309 307 306 306 307 308 308 307 305 303 299 296 296 295 291 288 287 285 282 281 281
257 261 248 213 235 274 265 226 216 222 208 182 173 176 193 217 223 221 228 236 234 233 238 234 223 226 238 236 228 226 232 239 247 253 259 263 267 272 278 279 278 275 276 279 281 284 288 293 296 297 301 306 308 307 307 309 306 300 301 302 301 302 305 308 309 309 307 306 307 309 310 310 310 309 309 307 300 295 295 296 294 289 285 284 284 283 280
235 225 201 175 186 251 264 142 142 158 147 147 171 195 208 222 223 213 212 226 233 235 237 234 227 227 234 235 231 234 242 246 252 258 262 266 272 278 279 278 278 278 280 282 282 284 289 294 294 295 299 304 307 309 310 310 305 301 300 298 297 300 305 308 310 309 307 307 310 312 311 311 310 309 310 310 307 303 300 299 298 295 291 288 288 288 287
234 192 172 169 183 217 198 143 150 168 168 170 195 220 221 221 221 214 211 219 227 230 232 231 230 232 237 237 234 237 245 251 254 259 264 267 272 277 277 275 277 281 284 284 284 286 289 292 293 296 300 304 307 309 311 309 303 298 296 293 294 299 305 309 311 311 309 309 311 310 309 311 311 310 310 310 311 314 314 310 304 299 297 297 298 299 298
242 216 144 145 191 207 161 148 182 208 205 199 209 231 228 222 220 216 216 225 232 232 230 230 232 233 235 236 236 238 245 252 255 258 263 267 270 270 271 273 277 282 286 286 286 288 289 291 294 296 299 303 307 309 309 307 300 295 293 292 294 301 307 309 310 310 310 310 310 309 308 310 312 312 310 310 311 315 319 320 318 312 307 305 307 309 310
248 250 111 113 243 209 153 194 259 232 216 213 216 229 231 227 225 226 229 235 239 238 235 235 235 235 235 236 238 240 245 253 258 261 263 266 267 267 270 276 281 284 286 286 287 289 290 292 294 295 296 302 308 309 307 305 298 292 290 291 295 302 307 308 307 307 309 310 309 308 309 310 311 310 310 310 311 312 315 321 324 323 321 318 317 317 317
250 215 126 262 279 251 200 222 249 209 201 209 215 224 230 227 228 234 238 241 241 240 239 238 236 234 234 236 240 243 248 254 259 260 260 262 267 272 277 282 286 286 286 287 289 291 292 294 294 293 296 303 309 309 307 303 295 289 286 289 296 304 309 308 305 305 308 309 308 309 310 310 310 310 309 310 312 312 312 315 317 319 320 321 322 323 321
269 214 174 224 260 247 193 193 180 127 165 197 210 216 215 214 224 230 233 239 239 237 238 238 234 231 231 235 239 243 247 252 255 257 260 265 271 278 283 284 284 285 286 288 290 292 294 295 294 293 299 308 312 310 306 299 290 286 286 289 296 305 310 310 310 310 310 310 310 311 311 309 309 310 310 310 311 311 311 312 313 313 316 319 323 325 327
247 232 213 231 249 228 145 197 250 217 203 202 205 206 200 204 222 231 234 238 236 233 236 238 236 235 237 238 239 240 242 247 252 257 263 269 274 278 280 280 283 285 285 287 292 296 296 296 294 296 303 311 312 307 303 297 291 289 288 289 296 305 311 314 315 313 311 311 312 312 310 308 308 310 311 312 312 312 312 313 314 316 318 321 325 328 331
245 235 224 240 247 200 211 249 254 237 217 205 202 207 205 208 226 244 245 238 231 230 237 237 234 236 239 239 239 241 244 249 255 261 265 269 272 273 277 280 284 284 284 287 292 295 293 291 291 295 303 310 310 304 300 296 292 288 286 288 297 306 311 312 312 310 309 310 312 313 311 310 311 312 313 314 314 314 314 314 316 318 321 323 327 328 329
67 46 74 231 218 202 231 250 258 255 235 205 197 213 212 208 228 248 249 237 228 231 237 236 232 234 238 241 245 250 251 255 259 263 266 269 271 274 278 279 277 278 281 286 289 290 290 290 291 297 306 310 306 301 297 292 288 284 285 292 302 308 309 309 308 308 309 311 312 313 312 312 313 314 315 315 315 315 316 317 318 320 323 325 327 328 329
114 9 325 258 216 225 248 252 248 254 244 203 197 222 221 211 224 240 240 234 233 233 233 233 233 237 243 248 251 252 253 255 258 261 264 268 273 278 282 280 277 278 282 287 290 292 292 292 296 303 309 307 301 296 293 287 282 282 288 298 307 311 313 314 312 311 313 314 313 313 313 312 313 315 315 315 315 316 317 318 319 322 324 325 326 329 333
188 260 264 234 210 233 257 248 233 239 236 211 214 231 230 222 227 237 240 241 240 235 232 234 238 244 249 250 248 248 249 253 257 260 264 270 277 283 285 283 282 284 286 289 292 293 292 293 299 305 306 301 295 292 287 281 280 285 294 305 310 312 315 318 317 315 316 317 317 316 314 313 314 315 315 314 316 317 317 319 321 323 325 325 326 330 336
207 230 235 208 188 211 236 229 214 221 230 227 228 232 232 230 232 237 242 242 238 236 238 241 245 248 247 243 243 243 239 240 248 256 263 271 279 284 286 286 287 287 288 289 290 292 293 296 300 303 301 296 292 288 280 278 283 291 299 307 311 313 316 320 320 318 318 319 320 320 318 317 317 317 316 317 318 318 317 319 322 324 325 326 328 333 340
222 238 247 238 225 223 224 214 202 202 209 222 229 228 230 233 234 235 237 238 238 242 246 246 245 244 238 234 235 233 230 235 247 257 265 273 279 283 286 286 286 287 288 289 290 293 296 296 296 298 297 294 290 285 278 276 285 296 305 310 312 314 316 319 320 319 318 320 322 322 321 320 320 320 320 320 320 319 318 319 322 325 326 328 330 335 341
223 233 247 247 242 239 236 231 225 216 212 217 227 229 230 233 233 233 236 241 244 247 247 240 234 230 228 228 231 234 237 245 254 261 269 276 282 286 287 285 285 289 291 292 295 297 296 294 298 302 299 292 287 284 281 282 290 298 305 309 311 313 315 317 319 319 320 322 323 322 322 322 322 323 323 323 322 322 321 321 322 325 327 329 331 334 339
223 224 234 242 241 238 238 238 236 232 229 230 234 234 233 234 237 238 241 245 247 244 238 230 225 225 230 235 240 243 248 253 258 264 271 277 280 282 281 281 283 283 283 287 295 302 298 296 301 302 296 291 289 285 281 283 289 295 300 304 307 310 312 314 316 319 322 325 325 324 324 324 325 325 327 326 325 325 324 323 324 326 327 330 334 336 339
229 227 232 240 241 239 241 243 240 236 233 233 237 238 237 239 243 243 242 243 244 241 235 230 229 232 238 243 245 248 252 256 261 266 270 274 277 276 274 275 276 273 272 280 291 296 293 293 295 293 288 284 281 278 278 281 285 290 295 299 303 305 307 309 312 316 320 323 325 325 325 325 324 325 326 327 327 328 327 326 326 327 328 331 335 338 340
235 232 232 236 238 238 240 242 239 233 230 232 236 240 240 239 239 238 239 241 241 237 233 231 230 232 236 238 241 249 256 261 264 267 271 274 274 272 272 273 274 275 277 282 284 283 282 283 282 280 278 276 273 273 275 277 281 284 288 292 297 301 303 305 308 311 314 318 320 321 322 323 323 323 324 325 327 328 329 328 329 330 330 332 335 338 341
229 231 229 228 231 234 234 234 236 237 236 235 237 239 240 238 234 232 235 239 237 233 232 230 226 227 232 235 241 252 262 268 268 269 272 272 269 270 275 279 281 283 286 283 277 274 274 272 268 270 273 273 272 274 276 278 282 285 288 291 294 297 300 302 303 305 308 312 314 315 317 319 320 321 323 325 325 327 328 329 330 332 333 334 335 338 342
232 233 229 226 229 231 232 233 238 242 242 240 240 240 239 236 231 230 234 238 238 235 232 230 229 232 239 243 248 257 266 269 268 267 264 260 257 257 265 276 285 294 296 285 274 270 269 267 266 270 273 273 273 276 278 280 282 285 287 290 293 294 296 297 298 300 303 306 308 310 312 314 315 318 321 323 324 325 326 327 329 332 333 334 336 339 341
234 230 226 226 230 232 232 233 236 241 244 245 243 241 237 234 232 235 239 242 240 236 235 235 236 241 247 250 253 258 262 264 264 262 259 257 255 250 254 269 284 293 291 283 278 273 269 270 271 273 275 276 276 276 277 278 280 282 284 287 290 292 293 293 294 297 300 301 303 305 308 309 309 312 315 317 320 323 324 325 327 330 333 334 336 339 341
235 226 221 225 230 232 233 233 234 239 246 249 248 243 239 235 234 236 239 240 237 236 237 238 239 243 246 247 248 253 257 260 262 261 260 264 265 260 258 269 281 284 279 278 279 276 274 274 275 275 276 276 275 274 275 275 277 279 282 284 287 289 290 290 292 293 295 296 298 301 303 304 304 305 307 311 314 318 321 323 325 328 331 333 335 337 340
240 230 227 231 233 233 232 231 230 234 244 251 251 247 242 238 236 235 236 237 236 237 238 239 240 243 244 243 242 245 252 258 259 258 259 266 273 271 267 272 281 282 277 275 274 272 273 274 274 274 276 275 274 274 274 274 276 278 281 283 285 286 286 287 289 290 290 291 294 296 298 298 298 299 302 305 309 313 317 321 324 325 327 329 332 335 337
247 240 236 235 233 230 229 228 229 233 241 248 251 247 242 239 238 237 236 236 237 239 240 241 242 244 245 244 245 249 255 259 260 256 251 252 264 273 278 282 285 283 280 277 274 274 275 276 276 276 276 276 275 276 276 276 278 280 280 281 283 284 284 285 286 287 288 289 290 293 294 295 294 295 297 301 304 308 311 314 318 322 325 327 328 331 333
252 249 243 236 233 233 234 234 236 239 242 245 249 249 245 240 239 238 237 237 240 243 245 246 247 248 250 251 252 255 258 261 260 257 252 251 258 269 276 279 278 278 278 278 278 278 278 279 279 278 277 277 277 278 278 279 280 280 281 283 284 284 284 285 285 286 287 288 290 291 293 292 291 291 294 297 299 302 305 308 313 318 321 323 324 325 327
255 251 244 238 236 237 237 235 231 229 225 226 239 248 248 243 240 241 241 242 244 247 248 250 251 253 254 254 253 252 254 258 262 263 262 261 265 270 273 273 273 274 274 275 277 279 281 281 281 281 281 281 281 281 282 282 283 283 284 286 286 285 285 285 285 286 287 289 290 291 290 289 289 290 292 294 296 297 299 303 307 312 316 318 319 321 323
257 252 249 245 240 235 231 223 216 215 220 227 236 244 248 247 245 244 244 244 245 247 248 250 252 254 254 254 254 253 253 252 257 264 268 268 270 274 274 271 269 270 272 274 277 279 280 281 282 282 282 281 282 282 283 284 285 286 286 287 287 287 287 287 287 288 289 290 289 289 288 287 288 290 291 293 295 295 294 297 301 305 309 312 313 315 318
262 259 256 248 236 226 221 214 212 221 231 236 240 244 246 243 241 241 241 240 242 245 248 250 253 255 255 254 255 256 255 251 250 257 265 268 269 270 272 273 272 274 276 278 280 281 282 283 283 283 283 282 283 283 284 285 286 286 287 288 288 288 288 288 289 290 290 289 288 287 285 285 287 289 291 291 291 290 289 292 296 300 304 306 308 310 312
264 256 245 234 227 223 218 214 218 230 237 239 242 244 239 230 229 236 240 239 239 244 249 252 254 256 257 256 257 258 258 257 256 259 262 264 264 266 268 271 273 276 278 280 282 284 285 286 285 285 285 284 284 285 286 287 287 288 288 288 288 289 290 291 291 291 290 290 289 287 286 286 287 288 289 288 287 286 287 290 294 297 299 301 302 305 306
255 247 244 241 240 237 233 231 233 239 243 245 246 243 234 228 231 239 242 239 237 240 246 252 256 258 259 259 260 261 260 260 261 262 263 264 266 267 268 269 271 273 276 278 280 283 285 286 286 286 286 285 286 288 289 290 290 290 289 289 291 292 292 293 293 294 294 295 294 292 292 292 291 290 290 289 287 287 289 291 292 295 296 297 299 300 301
259 256 255 254 252 251 250 248 246 245 244 244 243 239 233 231 234 238 239 236 235 237 241 249 257 262 263 262 263 265 265 264 263 264 264 264 265 266 267 269 271 272 274 276 279 282 284 286 287 288 288 288 289 289 289 289 290 290 291 292 294 294 293 294 294 295 296 297 296 295 295 294 292 291 292 292 291 291 292 292 293 294 295 295 296 297 297